FW1203 Weather Reports


Display with metric or nautical units.
time (UTC)temp
F
wind
direction
speed
MPH
gust
MPH
rain 1hr
in
rain 24hr
in
rain mn
in
humidity
%
barometer
mb
20260903190303 83 0 0.0 0.0 0.00 0.02 0.02 78 1011.2
20260903185803 82 0 0.0 0.0 0.00 0.02 0.02 79 1011.3
20260903185306 82 0 0.0 0.0 0.00 0.02 0.02 78 1011.4
20260903184803 81 0 0.0 0.0 0.00 0.02 0.02 81 1011.4
20260903184303 80 0 0.0 0.0 0.00 0.02 0.02 81 1011.5
20260903183803 80 0 0.0 0.0 0.00 0.02 0.02 81 1011.6
20260903183303 80 0 0.0 0.0 0.00 0.02 0.02 82 1011.6
20260903182803 79 0 0.0 0.0 0.00 0.02 0.02 83 1011.7
20260903182306 79 0 0.0 0.0 0.00 0.02 0.02 84 1011.7
20260903181803 79 0 0.0 0.0 0.00 0.02 0.02 84 1011.8
20260903181303 78 0 0.0 0.0 0.00 0.02 0.02 87 1012.0
20260903180803 78 0 0.0 0.0 0.00 0.02 0.02 87 1012.0
20260903180303 77 0 0.0 0.0 0.00 0.02 0.02 89 1011.9
20260903175803 77 0 0.0 0.0 0.00 0.02 0.02 91 1012.2
20260903175306 76 0 0.0 0.0 0.00 0.02 0.02 92 1012.4
20260903174803 76 0 0.0 0.0 0.00 0.02 0.02 93 1012.5
20260903174303 75 0 0.0 0.0 0.00 0.02 0.02 93 1012.6
20260903173803 75 0 0.0 0.0 0.00 0.02 0.02 93 1012.7
20260903173303 75 0 0.0 0.0 0.00 0.02 0.02 93 1012.7
20260903172803 75 0 0.0 0.0 0.00 0.02 0.02 92 1012.7
20260903172306 75 0 0.0 0.0 0.00 0.02 0.02 92 1012.9
20260903171803 75 0 0.0 0.0 0.02 0.02 0.02 92 1013.0
20260903171303 75 0 0.0 0.0 0.02 0.02 0.02 91 1013.2
20260903170803 76 0 0.0 0.0 0.02 0.02 0.02 91 1013.1
20260903170303 76 0 0.0 0.0 0.02 0.02 0.02 90 1013.0
20260903165803 77 0 0.0 0.0 0.02 0.02 0.02 90 1013.0
20260903165305 77 0 0.0 0.0 0.02 0.02 0.02 91 1012.9
20260903164803 78 0 0.0 0.0 0.02 0.02 0.02 90 1012.8
20260903164303 78 0 0.0 0.0 0.02 0.02 0.02 89 1013.0
20260903163803 79 0 0.0 0.0 0.02 0.02 0.02 89 1013.0
20260903163303 80 0 0.0 0.0 0.02 0.02 0.02 88 1013.0
20260903162803 81 0 0.0 0.0 0.02 0.02 0.02 87 1013.0
20260903162306 82 0 0.0 0.0 0.02 0.02 0.02 86 1013.2
20260903161803 83 0 0.0 0.0 0.00 0.00 0.00 83 1013.0
20260903161303 83 0 0.0 0.0 0.00 0.00 0.00 82 1012.7
20260903160803 84 0 0.0 0.0 0.00 0.00 0.00 82 1012.4
20260903160303 84 0 0.0 0.0 0.00 0.00 0.00 81 1012.4
20260903155803 84 0 0.0 0.0 0.00 0.00 0.00 80 1012.3
20260903155306 85 0 0.0 0.0 0.00 0.00 0.00 79 1012.1
20260903154803 85 0 0.0 0.0 0.00 0.00 0.00 78 1011.8
20260903154303 85 0 0.0 0.0 0.00 0.00 0.00 78 1011.8
20260903153803 85 0 0.0 0.0 0.00 0.00 0.00 78 1011.9
20260903153303 86 0 0.0 0.0 0.00 0.00 0.00 76 1011.9
20260903152803 86 0 0.0 0.0 0.00 0.00 0.00 76 1011.9
20260903152306 87 0 0.0 0.0 0.00 0.00 0.00 78 1011.8
20260903151803 87 0 0.0 0.0 0.00 0.00 0.00 79 1011.3
20260903151303 86 0 0.0 0.0 0.00 0.00 0.00 77 1011.1
20260903150803 86 0 0.0 0.0 0.00 0.00 0.00 78 1011.0
20260903150303 86 0 0.0 0.0 0.00 0.00 0.00 77 1011.0
20260903145803 86 0 0.0 0.0 0.00 0.00 0.00 78 1011.1
20260903145305 86 0 0.0 0.0 0.00 0.00 0.00 78 1011.1
20260903144803 86 0 0.0 0.0 0.00 0.00 0.00 78 1011.0
20260903144303 85 0 0.0 0.0 0.00 0.00 0.00 79 1011.1
20260903143803 85 0 0.0 0.0 0.00 0.00 0.00 80 1011.0
20260903143303 85 0 0.0 0.0 0.00 0.00 0.00 80 1011.0
20260903142803 85 0 0.0 0.0 0.00 0.00 0.00 79 1010.9
20260903142306 85 0 0.0 0.0 0.00 0.00 0.00 79 1010.9
20260903141803 85 0 0.0 0.0 0.00 0.00 0.00 79 1010.9
20260903141303 85 0 0.0 0.0 0.00 0.00 0.00 79 1010.9
20260903140803 85 0 0.0 0.0 0.00 0.00 0.00 79 1010.8
20260903140303 85 0 0.0 0.0 0.00 0.00 0.00 79 1010.9
20260903135803 85 0 0.0 0.0 0.00 0.00 0.00 81 1010.8
20260903135306 84 0 0.0 0.0 0.00 0.00 0.00 81 1010.8
20260903134803 84 0 0.0 0.0 0.00 0.00 0.00 81 1010.7
20260903134303 83 0 0.0 0.0 0.00 0.00 0.00 82 1010.7
20260903133803 83 0 0.0 0.0 0.00 0.00 0.00 84 1010.8
20260903133303 82 0 0.0 0.0 0.00 0.00 0.00 86 1010.7
20260903132803 81 0 0.0 0.0 0.00 0.00 0.00 87 1010.7
20260903132306 81 0 0.0 0.0 0.00 0.00 0.00 88 1010.7
20260903131803 80 0 0.0 0.0 0.00 0.00 0.00 88 1010.7
20260903131303 80 0 0.0 0.0 0.00 0.00 0.00 89 1010.7
20260903130803 79 0 0.0 0.0 0.00 0.00 0.00 90 1010.7
20260903125803 78 0 0.0 0.0 0.00 0.00 0.00 91 1010.8
20260903125305 78 0 0.0 0.0 0.00 0.00 0.00 92 1010.8
20260903124803 78 0 0.0 0.0 0.00 0.00 0.00 92 1010.9
20260903124303 78 0 0.0 0.0 0.00 0.00 0.00 92 1010.9
20260903123803 77 0 0.0 0.0 0.00 0.00 0.00 92 1010.9
20260903123303 77 0 0.0 0.0 0.00 0.00 0.00 92 1010.9
20260903122803 77 0 0.0 0.0 0.00 0.00 0.00 92 1011.0
20260903122305 77 0 0.0 0.0 0.00 0.00 0.00 92 1011.0
20260903121803 77 0 0.0 0.0 0.00 0.00 0.00 92 1011.0
20260903121303 77 0 0.0 0.0 0.00 0.00 0.00 92 1011.0
20260903120803 77 0 0.0 0.0 0.00 0.00 0.00 92 1011.1
20260903120303 77 0 0.0 0.0 0.00 0.00 0.00 92 1011.1
20260903115803 77 0 0.0 0.0 0.00 0.00 0.00 92 1011.1
20260903115305 77 0 0.0 0.0 0.00 0.00 0.00 92 1011.1
20260903114803 77 0 0.0 0.0 0.00 0.00 0.00 92 1011.0
20260903114303 77 0 0.0 0.0 0.00 0.00 0.00 92 1011.1
20260903113803 77 0 0.0 0.0 0.00 0.00 0.00 92 1011.0
20260903113303 77 0 0.0 0.0 0.00 0.00 0.00 92 1011.1
20260903112803 77 0 0.0 0.0 0.00 0.00 0.00 92 1011.0
20260903112305 77 0 0.0 0.0 0.00 0.00 0.00 92 1011.0
20260903111803 77 0 0.0 0.0 0.00 0.00 0.00 92 1011.0
20260903111303 77 0 0.0 0.0 0.00 0.00 0.00 92 1011.0
20260903110803 77 0 0.0 0.0 0.00 0.00 0.00 92 1011.0
20260903110303 77 0 0.0 0.0 0.00 0.00 0.00 92 1011.0
20260903105803 77 0 0.0 0.0 0.00 0.00 0.00 92 1010.9
20260903105305 78 0 0.0 0.0 0.00 0.00 0.00 92 1011.0
20260903104803 78 0 0.0 0.0 0.00 0.00 0.00 92 1011.0
20260903104303 78 0 0.0 0.0 0.00 0.00 0.00 92 1011.0
20260903103803 78 0 0.0 0.0 0.00 0.00 0.00 91 1011.0
20260903103303 78 0 0.0 0.0 0.00 0.00 0.00 91 1010.9
20260903102803 78 0 0.0 0.0 0.00 0.00 0.00 91 1010.9
20260903102305 78 0 0.0 0.0 0.00 0.00 0.00 91 1010.8
20260903101803 78 0 0.0 0.0 0.00 0.00 0.00 91 1010.8
20260903101303 78 0 0.0 0.0 0.00 0.00 0.00 91 1010.8
20260903100803 78 0 0.0 0.0 0.00 0.00 0.00 91 1010.9
20260903100303 78 0 0.0 0.0 0.00 0.00 0.00 91 1010.9
20260903095803 78 0 0.0 0.0 0.00 0.00 0.00 91 1010.9
20260903095305 78 0 0.0 0.0 0.00 0.00 0.00 91 1011.0
20260903094803 78 0 0.0 0.0 0.00 0.00 0.00 91 1010.9
20260903094303 78 0 0.0 0.0 0.00 0.00 0.00 91 1010.9
20260903093803 78 0 0.0 0.0 0.00 0.00 0.00 91 1010.9
20260903093303 79 0 0.0 0.0 0.00 0.00 0.00 90 1010.8
20260903092803 79 0 0.0 0.0 0.00 0.00 0.00 90 1010.8
20260903092306 79 0 0.0 0.0 0.00 0.00 0.00 90 1010.8
20260903091803 79 0 0.0 0.0 0.00 0.00 0.00 90 1010.8
20260903091303 79 0 0.0 0.0 0.00 0.00 0.00 90 1010.8
20260903090303 79 0 0.0 0.0 0.00 0.00 0.00 90 1010.8
20260903085803 79 0 0.0 0.0 0.00 0.00 0.00 90 1010.8
20260903085305 79 0 0.0 0.0 0.00 0.00 0.00 90 1010.8
20260903084803 79 0 0.0 0.0 0.00 0.00 0.00 90 1010.8
20260903084303 79 0 0.0 0.0 0.00 0.00 0.00 90 1010.7
20260903083803 79 0 0.0 0.0 0.00 0.00 0.00 90 1010.7
20260903083303 79 0 0.0 0.0 0.00 0.00 0.00 90 1010.7
20260903082803 79 0 0.0 0.0 0.00 0.00 0.00 90 1010.7
20260903082306 79 0 0.0 0.0 0.00 0.00 0.00 90 1010.6
20260903081803 79 0 0.0 0.0 0.00 0.00 0.00 90 1010.7
20260903081303 79 0 0.0 0.0 0.00 0.00 0.00 90 1010.6
20260903080803 79 0 0.0 0.0 0.00 0.00 0.00 90 1010.7
20260903080303 79 0 0.0 0.0 0.00 0.00 0.00 90 1010.6
20260903075803 79 0 0.0 0.0 0.00 0.00 0.00 90 1010.5
20260903075306 79 0 0.0 0.0 0.00 0.00 0.00 90 1010.6
20260903074803 79 0 0.0 0.0 0.00 0.00 0.00 89 1010.5
20260903074303 79 0 0.0 0.0 0.00 0.00 0.00 89 1010.5
20260903073803 79 0 0.0 0.0 0.00 0.00 0.00 89 1010.5
20260903073303 80 0 0.0 0.0 0.00 0.00 0.00 89 1010.6
20260903072803 80 0 0.0 0.0 0.00 0.00 0.00 89 1010.6
20260903072306 80 0 0.0 0.0 0.00 0.00 0.00 89 1010.6
20260903071803 80 0 0.0 0.0 0.00 0.00 0.00 89 1010.7
20260903071303 80 0 0.0 0.0 0.00 0.00 0.00 89 1010.7
20260903070803 80 0 0.0 0.0 0.00 0.00 0.00 88 1010.6
20260903070303 80 0 0.0 0.0 0.00 0.00 0.00 88 1010.7
20260903065803 80 0 0.0 0.0 0.00 0.00 0.00 88 1010.6
20260903065305 80 0 0.0 0.0 0.00 0.00 0.00 88 1010.7
20260903064803 80 0 0.0 0.0 0.00 0.00 0.00 88 1010.7
20260903064303 80 0 0.0 0.0 0.00 0.00 0.00 88 1010.7
20260903063803 80 0 0.0 0.0 0.00 0.00 0.00 88 1010.7
20260903063303 80 0 0.0 0.0 0.00 0.00 0.00 88 1010.7
20260903062803 80 0 0.0 0.0 0.00 0.00 0.00 87 1010.7
20260903062306 81 0 0.0 0.0 0.00 0.00 0.00 87 1010.7
20260903061803 81 0 0.0 0.0 0.00 0.00 0.00 87 1010.8
20260903061303 81 0 0.0 0.0 0.00 0.00 0.00 87 1010.8
20260903060803 81 0 0.0 0.0 0.00 0.00 0.00 88 1010.8
20260903060303 81 0 0.0 0.0 0.00 0.00 0.00 88 1010.8
20260903055803 81 0 0.0 0.0 0.00 0.00 0.00 88 1010.8
20260903055306 81 0 0.0 0.0 0.00 0.00 0.00 88 1010.8
20260903054803 81 0 0.0 0.0 0.00 0.00 0.00 88 1010.8
20260903054303 81 0 0.0 0.0 0.00 0.00 0.00 88 1010.7
20260903053803 81 0 0.0 0.0 0.00 0.00 0.00 88 1010.7
20260903053303 81 0 0.0 0.0 0.00 0.00 0.00 88 1010.7
20260903052803 81 0 0.0 0.0 0.00 0.00 0.00 87 1010.7
20260903052306 81 0 0.0 0.0 0.00 0.00 0.00 87 1010.6
20260903051803 81 0 0.0 0.0 0.00 0.00 0.00 87 1010.7
20260903051303 81 0 0.0 0.0 0.00 0.00 0.00 87 1010.6
20260903050803 81 0 0.0 0.0 0.00 0.00 0.00 87 1010.6
20260903050303 81 0 0.0 0.0 0.00 0.00 0.00 87 1010.5
20260903045803 82 0 0.0 0.0 0.00 0.00 0.00 87 1010.5
20260903045306 82 0 0.0 0.0 0.00 0.00 0.00 86 1010.5
20260903044803 82 0 0.0 0.0 0.00 0.00 0.00 86 1010.5
20260903044303 82 0 0.0 0.0 0.00 0.00 0.00 86 1010.5
20260903043803 82 0 0.0 0.0 0.00 0.00 0.00 86 1010.5
20260903043303 82 0 0.0 0.0 0.00 0.00 0.00 85 1010.5
20260903042803 82 0 0.0 0.0 0.00 0.00 0.00 85 1010.4
20260903042306 82 0 0.0 0.0 0.00 0.00 0.00 85 1010.5
20260903041803 82 0 0.0 0.0 0.00 0.00 0.00 85 1010.6
20260903041303 83 0 0.0 0.0 0.00 0.00 0.00 85 1010.5
20260903040804 83 0 0.0 0.0 0.00 0.00 0.00 84 1010.5
20260903040303 83 0 0.0 0.0 0.00 0.00 0.00 84 1010.5
20260903035803 83 0 0.0 0.0 0.00 0.00 0.00 84 1010.5
20260903035306 83 0 0.0 0.0 0.00 0.00 0.00 84 1010.5
20260903034803 83 0 0.0 0.0 0.00 0.00 0.00 84 1010.4
20260903034303 83 0 0.0 0.0 0.00 0.00 0.00 84 1010.4
20260903033803 83 0 0.0 0.0 0.00 0.00 0.00 83 1010.4
20260903033303 83 0 0.0 0.0 0.00 0.00 0.00 83 1010.4
20260903032803 83 0 0.0 0.0 0.00 0.00 0.00 83 1010.4
20260903032305 84 0 0.0 0.0 0.00 0.00 0.00 83 1010.4
20260903031803 84 0 0.0 0.0 0.00 0.00 0.00 82 1010.3
20260903031303 84 0 0.0 0.0 0.00 0.00 0.00 82 1010.3
20260903030803 84 0 0.0 0.0 0.00 0.00 0.00 82 1010.2
20260903030303 84 0 0.0 0.0 0.00 0.00 0.00 82 1010.3
20260903025803 84 0 0.0 0.0 0.00 0.00 0.00 82 1010.4
20260903025305 84 0 0.0 0.0 0.00 0.00 0.00 81 1010.4
20260903024803 84 0 0.0 0.0 0.00 0.00 0.00 81 1010.4
20260903024303 84 0 0.0 0.0 0.00 0.00 0.00 81 1010.4
20260903023803 84 0 0.0 0.0 0.00 0.00 0.00 81 1010.4
20260903023303 85 0 0.0 0.0 0.00 0.00 0.00 81 1010.3
20260903022803 85 0 0.0 0.0 0.00 0.00 0.00 81 1010.4
20260903022305 85 0 0.0 0.0 0.00 0.00 0.00 80 1010.4
20260903021803 85 0 0.0 0.0 0.00 0.00 0.00 80 1010.4
20260903021303 85 0 0.0 0.0 0.00 0.00 0.00 80 1010.3
20260903020803 85 0 0.0 0.0 0.00 0.00 0.00 79 1010.3
20260903020303 85 0 0.0 0.0 0.00 0.00 0.00 79 1010.4
20260903015803 85 0 0.0 0.0 0.00 0.00 0.00 79 1010.2
20260903015305 85 0 0.0 0.0 0.00 0.00 0.00 79 1010.2
20260903014803 86 0 0.0 0.0 0.00 0.00 0.00 79 1010.2
20260903014303 86 0 0.0 0.0 0.00 0.00 0.00 78 1010.2
20260903013803 86 0 0.0 0.0 0.00 0.00 0.00 78 1010.1
20260903013303 86 0 0.0 0.0 0.00 0.00 0.00 78 1010.1
20260903012803 86 0 0.0 0.0 0.00 0.00 0.00 77 1010.0
20260903012306 86 0 0.0 0.0 0.00 0.00 0.00 77 1009.9
20260903011803 86 0 0.0 0.0 0.00 0.00 0.00 76 1009.9
20260903011303 86 0 0.0 0.0 0.00 0.00 0.00 76 1009.9
20260903010803 87 0 0.0 0.0 0.00 0.00 0.00 75 1010.0
20260903010303 87 0 0.0 0.0 0.00 0.00 0.00 74 1010.0
20260903005803 87 0 0.0 0.0 0.00 0.00 0.00 73 1009.9
20260903005306 87 0 0.0 0.0 0.00 0.00 0.00 72 1009.8
20260903004803 88 0 0.0 0.0 0.00 0.00 0.00 71 1009.7
20260903004303 88 0 0.0 0.0 0.00 0.00 0.00 71 1009.7
20260903003803 88 0 0.0 0.0 0.00 0.00 0.00 70 1009.6
20260903003303 88 0 0.0 0.0 0.00 0.00 0.00 70 1009.5
20260903002803 89 0 0.0 0.0 0.00 0.00 0.00 69 1009.5
20260903002306 89 0 0.0 0.0 0.00 0.00 0.00 69 1009.5
20260903001803 89 0 0.0 0.0 0.00 0.00 0.00 69 1009.4
20260903001303 89 0 0.0 0.0 0.00 0.00 0.00 68 1009.4
20260903000803 89 0 0.0 0.0 0.00 0.00 0.00 68 1009.4
20260903000303 90 0 0.0 0.0 0.00 0.00 0.00 69 1009.4
20260902235803 90 0 0.0 0.0 0.00 0.00 0.00 68 1009.4
20260902235305 90 0 0.0 0.0 0.00 0.00 0.00 67 1009.4
20260902234803 90 0 0.0 0.0 0.00 0.00 0.00 67 1009.4
20260902234303 91 0 0.0 0.0 0.00 0.00 0.00 67 1009.4
20260902233803 91 0 0.0 0.0 0.00 0.00 0.00 67 1009.4
20260902233303 91 0 0.0 0.0 0.00 0.00 0.00 67 1009.4
20260902232803 91 0 0.0 0.0 0.00 0.00 0.00 66 1009.4
20260902232306 91 0 0.0 0.0 0.00 0.00 0.00 66 1009.3
20260902231803 91 0 0.0 0.0 0.00 0.00 0.00 66 1009.4
20260902231303 91 0 0.0 0.0 0.00 0.00 0.00 66 1009.4
20260902230803 91 0 0.0 0.0 0.00 0.00 0.00 66 1009.5
20260902230303 91 0 0.0 0.0 0.00 0.00 0.00 66 1009.4
20260902225803 91 0 0.0 0.0 0.00 0.00 0.00 66 1009.4
20260902225306 91 0 0.0 0.0 0.00 0.00 0.00 65 1009.4
20260902224803 92 0 0.0 0.0 0.00 0.00 0.00 64 1009.4
20260902224303 92 0 0.0 0.0 0.00 0.00 0.00 64 1009.4
20260902223803 92 0 0.0 0.0 0.00 0.00 0.00 63 1009.4
20260902223303 92 0 0.0 0.0 0.00 0.00 0.00 64 1009.6
20260902222803 92 0 0.0 0.0 0.00 0.00 0.00 63 1009.6
20260902222305 93 0 0.0 0.0 0.00 0.00 0.00 64 1009.6
20260902221803 93 0 0.0 0.0 0.00 0.00 0.00 62 1009.6
20260902221303 93 0 0.0 0.0 0.00 0.00 0.00 63 1009.6
20260902220803 93 0 0.0 0.0 0.00 0.00 0.00 61 1009.6
20260902220303 94 0 0.0 0.0 0.00 0.00 0.00 62 1009.6
20260902215803 94 0 0.0 0.0 0.00 0.00 0.00 62 1009.7
20260902215306 94 0 0.0 0.0 0.00 0.00 0.00 61 1009.7
20260902214803 94 0 0.0 0.0 0.00 0.00 0.00 60 1009.7
20260902214303 94 0 0.0 0.0 0.00 0.00 0.00 60 1009.7
20260902213803 94 0 0.0 0.0 0.00 0.00 0.00 59 1009.8
20260902213303 94 0 0.0 0.0 0.00 0.00 0.00 59 1009.8
20260902212803 94 0 0.0 0.0 0.00 0.00 0.00 58 1009.7
20260902212305 94 0 0.0 0.0 0.00 0.00 0.00 59 1009.7
20260902211803 94 0 0.0 0.0 0.00 0.00 0.00 59 1009.8
20260902211303 94 0 0.0 0.0 0.00 0.00 0.00 59 1009.8
20260902210803 94 0 0.0 0.0 0.00 0.00 0.00 57 1009.8
20260902210303 95 0 0.0 0.0 0.00 0.00 0.00 57 1009.8
20260902205803 95 0 0.0 0.0 0.00 0.00 0.00 56 1009.8
20260902205306 95 0 0.0 0.0 0.00 0.00 0.00 55 1009.8
20260902204803 95 0 0.0 0.0 0.00 0.00 0.00 55 1009.8
20260902204303 95 0 0.0 0.0 0.00 0.00 0.00 55 1009.8
20260902203803 95 0 0.0 0.0 0.00 0.00 0.00 55 1009.9
20260902203303 95 0 0.0 0.0 0.00 0.00 0.00 56 1009.9
20260902202803 95 0 0.0 0.0 0.00 0.00 0.00 55 1009.9
20260902202306 96 0 0.0 0.0 0.00 0.00 0.00 55 1009.9
20260902201803 96 0 0.0 0.0 0.00 0.00 0.00 55 1009.9
20260902201303 96 0 0.0 0.0 0.00 0.00 0.00 54 1010.0
20260902200803 96 0 0.0 0.0 0.00 0.00 0.00 57 1009.9
20260902200303 96 0 0.0 0.0 0.00 0.00 0.00 56 1009.9
20260902195803 96 0 0.0 0.0 0.00 0.00 0.00 55 1010.0
20260902195306 96 0 0.0 0.0 0.00 0.00 0.00 56 1010.1
20260902194803 96 0 0.0 0.0 0.00 0.00 0.00 57 1010.1
20260902194303 96 0 0.0 0.0 0.00 0.00 0.00 55 1010.2
20260902193803 97 0 0.0 0.0 0.00 0.00 0.00 56 1010.2
20260902193303 97 0 0.0 0.0 0.00 0.00 0.00 56 1010.2
20260902192803 96 0 0.0 0.0 0.00 0.00 0.00 55 1010.4
20260902192306 96 0 0.0 0.0 0.00 0.00 0.00 57 1010.4
20260902191803 96 0 0.0 0.0 0.00 0.00 0.00 59 1010.4
20260902191303 95 0 0.0 0.0 0.00 0.00 0.00 59 1010.4
20260902190803 95 0 0.0 0.0 0.00 0.00 0.00 58 1010.5